Weather History for Athens, GA

Change the Weather History Date:

Tuesday, February 5, 2013

  Actual Average Record
Temperature  
Mean Temperature 46 °F 45 °F  
Max Temperature 61 °F 56 °F 78 °F (1927)
Min Temperature 30 °F 35 °F 5 °F (1917)
Degree Days  
Heating Degree Days 19 20  
Month to date heating degree days 118 100  
Since 1 July heating degree days 1587 1857  
Moisture  
Dew Point 37 °F    
Average Humidity 70    
Maximum Humidity 92    
Minimum Humidity 47    
Precipitation  
Precipitation 0.00 in 0.15 in 2.65 in (2010)
Month to date precipitation 0.10 0.78  
Year to date precipitation 5.07 4.83  
Snow  
Snow 0.00 in 0.10 in 0.00 in (2002)
Month to date snowfall 0.0 0.2  
Since 1 July snowfall 0.0 1.7  
Snow Depth -    
Sea Level Pressure  
Sea Level Pressure 30.01 in    
Wind  
Wind Speed 3 mph (WSW)    
Max Wind Speed 14 mph    
Max Gust Speed 20 mph    
Visibility 9 miles    
Events      
T = Trace of Precipitation, MM = Missing Value Source: NWS Daily Summary

Daily Weather History Graph

Daily Weather History Graph

Search for Another Location

Airport:

Trip Planner

Search our weather history database for the weather conditions in past years. The results will help you decide how hot, cold, wet, or windy it might be!

Date:

Astronomy

Feb. 05, 2013 Rise Set
Actual Time 7:26 AM EST 6:08 PM EST
Civil Twilight 7:00 AM EST 6:34 PM EST
Nautical Twilight 6:31 AM EST 7:03 PM EST
Astronomical Twilight 6:01 AM EST 7:33 PM EST
Moon 3:02 AM EST (2/5) 1:29 PM EST (2/5)
Length of Visible Light 11h 33m
Length of Day
10h 41m
Waning Crescent, 27% of the Moon is Illuminated
Feb 5
Waning Crescent
Feb 10
New
Feb 17
First Quarter
Feb 25
Full
Mar 4
Last Quarter

Hourly Weather History & Observations

Time (EST) Temp. Windchill Dew Point Humidity Pressure Visibility Wind Dir Wind Speed Gust Speed Precip Events Conditions
12:51 AM 39.0 °F 36.8 °F 28.0 °F 65% 30.01 in 10.0 mi SSW 3.5 mph - N/A   Clear
1:51 AM 37.9 °F - 28.9 °F 70% 30.00 in 10.0 mi Calm Calm - N/A   Clear
2:51 AM 37.0 °F - 28.9 °F 73% 30.00 in 10.0 mi Calm Calm - N/A   Clear
3:51 AM 34.0 °F - 28.9 °F 82% 30.00 in 9.0 mi Calm Calm - N/A   Clear
4:51 AM 33.1 °F - 28.9 °F 85% 29.99 in 9.0 mi Calm Calm - N/A   Clear
5:51 AM 32.0 °F - 28.9 °F 88% 30.00 in 8.0 mi Calm Calm - N/A   Clear
6:51 AM 32.0 °F - 30.0 °F 92% 30.02 in 8.0 mi Calm Calm - N/A   Overcast
7:51 AM 36.0 °F - 30.9 °F 82% 30.03 in 7.0 mi Calm Calm - N/A   Overcast
8:51 AM 41.0 °F - 33.1 °F 73% 30.04 in 8.0 mi Calm Calm - N/A   Mostly Cloudy
9:51 AM 45.0 °F 43.5 °F 32.0 °F 60% 30.04 in 9.0 mi West 3.5 mph - N/A   Mostly Cloudy
10:51 AM 50.0 °F - 34.0 °F 54% 30.05 in 9.0 mi SW 5.8 mph - N/A   Overcast
11:51 AM 55.9 °F - 36.0 °F 47% 30.04 in 10.0 mi Variable 3.5 mph - N/A   Overcast
12:51 PM 59.0 °F - 39.0 °F 48% 30.01 in 10.0 mi WSW 5.8 mph - N/A   Overcast
1:51 PM 59.0 °F - 43.0 °F 55% 30.00 in 10.0 mi WNW 11.5 mph 18.4 mph N/A   Overcast
2:51 PM 60.1 °F - 43.0 °F 53% 29.99 in 10.0 mi West 9.2 mph - N/A   Overcast
3:51 PM 60.1 °F - 44.1 °F 55% 29.99 in 10.0 mi Variable 5.8 mph - N/A   Overcast
4:51 PM 61.0 °F - 44.1 °F 54% 29.98 in 10.0 mi SW 5.8 mph - N/A   Scattered Clouds
5:51 PM 59.0 °F - 44.1 °F 58% 29.98 in 10.0 mi West 3.5 mph - N/A   Mostly Cloudy
6:51 PM 55.9 °F - 45.0 °F 67% 29.99 in 10.0 mi Calm Calm - N/A   Overcast
7:51 PM 55.9 °F - 45.0 °F 67% 30.01 in 10.0 mi NW 3.5 mph - N/A   Overcast
8:51 PM 53.6 °F - 44.6 °F 72% 30.01 in 10.0 mi Calm Calm - N/A   Overcast
9:51 PM 52.0 °F - 45.0 °F 77% 30.03 in 9.0 mi Calm Calm - N/A   Scattered Clouds
10:51 PM 48.9 °F - 44.1 °F 83% 30.03 in 9.0 mi Calm Calm - N/A   Clear
11:51 PM 48.0 °F - 44.1 °F 86% 30.04 in 9.0 mi Calm Calm - N/A   Partly Cloudy